Location: Bédeille
(43.0872°N, 1.1041°E)
Time: 07:23:45
(UTC+00:00)

BREEZE-M DEB (TANK) - Pass Details

Date: 03 February 2023
Orbit: 348 x 16289 km, 49.4° (Epoch: 26 March)

Event Time Altitude Azimuth Distance (km) Brightness Sun altitude
Rises 18:21:34 0° 299° (WNW) 4,735 7.9 -13.3°
Reaches altitude 10° 18:26:10 10° 290° (WNW) 2,543 6.7 -14.1°
Maximum altitude 18:30:16 28° 230° (SW) 946 4.2 -14.9°
Drops below altitude 10° 18:32:32 10° 167° (SSE) 1,371 4.3 -15.3°
Enters shadow 18:33:23 - 157° (SSE) 1,739 4.7 -15.4°
